Wind_Speed
9 9 8 9 9 9 10 11 12 13 13 13 13 13 13 13 13 13 13 13 13 14 14 15 15 15 15 16 17 18 19 19 19 15 16 17 12 11 8 9 10 9 12 13 12 13 13 13 13 13 11 9 7 7 9 9 7 6 5 6 7 7 8 4 6 5 5 8 7 6 6 3 2 4 3 2 7 9 4 4 9 13 9 13 15 19 21 20
9 9 9 9 9 9 10 10 12 13 13 13 13 13 13 13 13 13 14 13 13 14 13 15 15 14 15 16 17 17 18 19 19 19 22 21 16 16 14 13 12 10 15 14 14 15 12 11 12 12 9 7 7 8 9 8 7 7 6 6 8 8 5 5 7 5 7 7 4 4 2 2 3 4 4 5 8 7 7 6 13 14 13 16 14 17 18 19
9 9 9 9 9 9 10 10 11 13 13 14 14 13 13 14 14 14 14 14 14 14 14 14 14 14 15 15 17 15 16 19 16 17 22 20 18 17 14 14 14 13 18 16 14 15 12 10 12 11 9 7 7 9 9 7 7 7 7 6 9 8 5 7 5 5 6 5 4 4 3 2 5 5 2 6 9 6 8 7 12 15 14 14 11 14 17 18
10 9 9 9 9 9 10 10 11 12 13 14 14 14 14 14 14 14 14 14 14 14 14 13 13 14 14 15 15 13 14 15 8 5 10 15 16 14 11 11 14 16 20 16 11 13 13 10 11 10 9 8 7 9 8 7 6 7 7 9 11 6 6 5 4 6 6 6 5 5 4 4 7 6 5 8 8 7 8 5 12 17 14 14 12 13 15 16
10 10 9 9 10 10 10 11 11 12 13 14 14 14 14 14 14 14 14 14 15 14 13 12 13 14 15 16 13 12 11 7 2 8 14 14 10 8 8 10 15 18 20 16 11 12 14 11 10 9 8 8 8 8 8 9 7 6 8 12 14 10 8 5 4 4 5 7 7 8 8 7 7 5 7 10 9 6 6 12 20 19 13 13 11 12 13 13
11 11 10 10 10 11 11 11 12 12 13 15 15 15 14 14 14 14 14 15 15 14 13 13 13 14 15 15 12 10 7 2 3 9 14 10 6 5 7 12 17 18 17 14 12 12 13 11 10 8 8 8 10 9 8 11 9 8 8 11 14 11 9 4 3 3 3 6 8 8 9 7 7 6 9 9 10 4 16 23 22 18 16 16 13 11 11 12
11 11 10 11 11 11 11 12 12 13 14 15 15 16 15 15 14 14 14 15 14 13 13 13 13 14 15 15 11 8 8 9 5 9 10 6 5 5 8 15 18 17 15 13 12 12 12 11 11 8 8 8 10 11 10 11 10 9 9 10 12 9 9 8 5 3 4 7 8 8 8 8 8 7 10 7 9 2 18 22 19 17 16 18 16 13 13 13
12 12 11 11 11 12 12 12 12 13 14 15 16 16 16 15 15 15 15 15 14 13 13 13 13 13 14 13 9 7 10 10 5 10 6 5 4 5 13 16 18 17 14 15 13 12 12 12 12 9 9 9 9 10 9 9 10 11 11 11 11 8 7 8 7 6 7 8 7 9 8 10 10 9 12 7 9 3 19 20 15 14 14 16 15 15 14 13
11 12 11 11 11 12 12 12 12 13 14 15 16 16 16 16 15 15 15 15 14 14 13 14 14 12 11 9 8 6 4 4 9 7 5 7 6 11 16 15 18 16 12 14 13 12 10 9 12 11 10 9 9 8 8 9 7 9 12 12 11 11 9 8 8 9 9 7 7 10 10 12 11 10 11 9 13 4 21 19 13 13 12 13 12 13 13 12
11 12 12 11 12 12 13 12 12 13 14 16 16 17 17 16 16 16 15 15 14 15 14 14 14 12 10 9 8 6 1 7 8 6 8 11 11 16 16 14 19 17 13 13 13 12 10 10 11 10 9 9 9 7 7 9 5 4 9 11 11 12 11 10 10 9 9 8 9 11 11 11 11 10 7 10 17 7 23 19 14 12 10 10 9 9 9 9
11 12 12 12 12 13 14 13 13 14 15 16 17 17 17 17 16 16 16 15 15 16 15 14 13 10 10 9 8 5 2 5 6 8 11 14 15 17 16 15 19 18 14 12 13 13 13 12 8 6 6 5 8 8 8 11 9 7 7 8 11 12 11 12 11 9 8 8 9 11 12 11 11 10 9 14 15 10 19 18 17 11 8 9 8 8 7 7
11 12 13 13 13 13 14 14 14 14 15 16 17 18 18 17 17 16 16 16 16 16 13 12 8 6 9 8 10 12 5 2 5 8 12 14 15 16 15 15 17 17 14 11 11 12 13 10 8 9 4 2 7 7 6 10 11 10 8 7 11 12 12 14 13 12 9 8 10 10 10 11 12 11 12 17 12 9 11 13 15 11 8 8 7 5 5 6
11 12 13 13 13 13 14 15 15 15 15 16 17 18 18 18 17 16 17 16 15 13 12 10 5 6 8 6 11 15 10 6 6 8 11 14 14 15 13 13 15 15 12 9 8 9 11 8 8 11 8 6 7 3 4 7 9 10 9 7 10 9 11 15 14 13 12 10 9 6 6 8 11 14 14 19 13 8 9 9 11 9 6 5 7 6 8 9
11 12 13 14 14 14 15 15 16 16 16 17 18 18 18 18 17 17 16 15 12 10 11 8 5 6 6 8 12 9 7 5 8 10 12 15 15 14 14 13 13 12 10 7 5 5 8 7 8 9 9 10 8 5 5 7 6 7 9 8 7 7 10 14 14 13 11 10 8 5 5 7 12 15 17 19 16 10 8 8 11 9 4 1 3 4 7 8
12 12 13 14 15 15 15 15 16 17 16 18 18 18 18 16 17 16 14 11 8 7 7 5 8 6 5 10 12 8 9 7 9 12 13 16 16 13 13 13 13 11 8 8 6 3 6 7 7 7 7 10 10 8 7 7 6 7 7 7 7 7 9 9 13 13 10 8 8 7 6 8 13 15 17 19 14 12 8 12 16 11 5 2 2 2 5 7
12 13 14 15 15 15 16 16 17 17 17 18 18 18 16 16 16 14 9 6 4 4 3 4 11 11 6 6 4 8 12 11 12 13 13 17 15 13 13 12 12 11 9 9 7 5 7 7 7 8 8 9 8 8 7 6 7 7 7 7 8 9 7 5 12 13 12 8 8 9 9 8 12 15 15 18 14 12 9 14 19 15 11 7 4 2 3 8
13 13 14 15 16 16 16 16 16 17 18 19 18 17 14 13 12 9 5 3 2 4 8 8 10 11 7 6 3 7 12 13 13 15 15 16 15 14 14 11 11 11 10 10 8 6 8 7 6 7 8 8 7 8 7 7 7 7 7 7 8 10 8 5 11 13 12 7 7 10 9 10 15 15 6 12 13 11 9 13 16 14 13 12 10 9 8 7
13 14 14 15 16 16 17 16 17 17 18 19 17 15 13 11 9 6 3 2 2 6 11 12 10 6 7 10 11 12 13 13 14 17 15 15 16 15 14 10 9 10 9 9 9 8 7 7 6 6 7 8 8 8 7 9 8 8 8 6 7 10 9 4 9 10 8 7 7 10 9 11 16 14 3 10 10 9 7 12 13 13 13 12 11 10 9 8
13 14 15 16 17 17 17 17 17 17 18 18 16 13 10 7 5 6 7 7 6 6 5 6 10 5 3 8 15 10 12 13 13 16 17 16 15 15 13 11 10 11 9 7 9 10 7 6 7 7 7 9 10 11 10 12 13 12 10 8 8 8 8 8 6 8 5 5 7 9 9 10 13 13 8 7 9 8 6 12 12 10 11 10 8 7 5 6
14 15 15 16 17 17 17 17 17 17 17 18 18 13 7 4 3 5 8 10 11 11 9 5 15 11 5 6 10 7 12 12 10 14 18 17 15 14 12 11 10 10 9 8 9 10 8 6 8 8 10 12 13 14 14 16 16 14 10 6 8 9 9 10 7 12 7 3 5 8 9 11 11 13 12 6 7 11 10 12 11 9 8 8 7 6 4 4
14 15 15 16 17 17 17 18 17 16 15 16 16 10 4 4 4 1 2 9 15 19 19 12 13 16 11 5 9 12 10 9 9 12 17 18 15 12 10 11 11 8 10 12 9 8 8 7 9 11 14 14 14 14 14 17 16 12 11 7 8 9 7 8 7 10 11 5 4 8 10 11 12 13 13 12 11 10 11 14 13 11 9 8 8 6 3 3
14 14 16 16 17 18 18 18 17 15 14 13 12 10 7 7 6 4 5 7 12 18 21 17 15 15 12 8 6 11 9 9 11 12 16 17 15 12 10 12 11 9 11 13 8 8 8 8 12 14 14 14 14 14 14 16 15 8 7 8 7 7 6 8 9 4 7 5 3 8 10 10 12 13 12 14 14 11 8 14 16 14 13 11 10 9 5 5
14 14 16 16 17 18 18 18 16 15 14 12 11 12 10 8 6 7 7 7 10 14 17 17 16 14 13 11 7 8 8 9 11 13 17 16 14 12 11 12 12 11 11 12 10 8 7 9 15 16 13 13 14 14 11 11 10 5 6 8 7 8 8 7 6 5 3 3 2 5 10 9 11 11 11 13 12 13 15 10 16 17 16 15 14 12 9 10
14 15 15 16 18 18 18 19 17 14 13 14 16 16 11 8 7 8 6 6 8 10 13 16 15 13 13 13 11 11 10 9 10 13 18 15 13 12 11 12 12 12 10 13 14 11 10 13 17 16 14 14 15 13 8 6 5 7 10 10 8 10 11 9 7 5 4 4 2 5 9 8 10 12 10 10 10 12 17 14 11 13 15 15 15 14 13 13
14 15 16 16 17 18 18 18 13 9 9 13 17 15 8 5 5 7 6 6 6 7 12 14 12 11 14 15 12 12 11 10 11 10 18 17 14 11 10 9 9 11 12 15 15 11 12 15 13 14 15 15 13 10 9 8 6 8 11 13 13 13 13 13 12 8 6 5 5 8 8 6 9 13 12 10 10 12 14 15 13 11 14 12 13 15 15 15
14 14 16 16 17 18 15 9 7 7 7 10 7 4 3 3 4 6 5 5 5 5 9 10 8 7 11 12 10 10 11 11 13 12 16 18 15 11 9 7 7 10 12 13 11 7 10 14 9 8 9 10 10 8 10 11 8 7 10 12 15 15 14 14 13 11 7 5 5 8 8 6 7 11 12 13 14 15 14 14 13 10 12 11 12 18 17 16
14 14 15 15 16 15 10 7 10 11 6 3 1 2 3 3 4 6 4 4 4 6 10 7 6 8 10 11 12 11 7 6 12 16 15 18 15 12 10 9 8 9 10 9 8 6 9 15 13 11 9 6 8 8 10 12 9 7 9 11 14 15 16 16 12 9 8 7 8 11 10 7 6 7 10 12 12 14 14 13 14 12 12 12 9 17 19 17
14 15 15 16 15 11 10 12 15 11 4 6 4 3 3 4 5 5 4 4 3 6 8 5 5 8 10 11 14 13 6 3 10 15 17 19 17 12 11 12 11 11 12 10 8 7 10 15 14 12 9 7 8 10 11 12 10 8 11 14 14 12 12 13 10 8 8 8 8 11 11 8 6 6 10 13 12 11 11 10 11 11 10 12 11 13 20 17
15 15 15 16 14 9 11 12 13 12 8 8 6 5 6 6 5 4 4 3 4 5 5 5 5 7 9 10 14 15 9 6 6 12 17 18 16 12 10 12 14 12 14 12 10 9 9 10 11 8 8 8 9 11 12 13 11 9 12 14 11 5 6 8 8 8 8 9 9 10 11 8 6 6 7 9 9 7 8 8 5 4 3 5 9 5 17 17
15 15 15 15 13 8 8 12 14 12 10 8 7 7 7 6 4 4 4 2 4 6 5 5 6 10 11 11 12 14 13 9 5 9 15 14 15 14 10 11 14 11 11 13 12 12 8 8 9 9 9 10 10 11 12 12 9 8 10 10 7 3 5 7 7 7 7 8 10 12 13 10 7 6 6 4 1 6 3 3 7 10 11 10 12 8 9 15
16 16 14 14 12 10 9 8 7 7 6 6 7 6 6 3 3 5 4 1 3 6 8 7 9 12 14 13 11 12 13 10 7 9 12 11 12 13 10 9 9 8 9 10 11 13 13 9 8 7 6 7 10 10 10 9 7 7 8 5 4 5 7 7 7 7 7 7 9 12 14 13 9 5 3 2 5 9 7 6 8 9 10 10 11 12 6 12
18 18 16 15 15 15 14 9 5 8 4 5 5 4 4 3 4 6 3 0 2 6 6 9 10 11 15 14 11 13 13 10 9 11 11 10 10 11 11 9 7 7 8 7 9 12 12 10 11 8 6 8 11 8 8 9 8 8 7 5 5 6 6 7 6 6 7 8 9 12 12 10 6 2 6 7 8 10 8 7 9 9 10 10 10 12 5 7
20 19 18 17 16 19 21 15 10 10 6 6 5 4 4 4 5 7 6 3 3 4 5 10 13 11 13 12 11 14 13 10 12 12 11 12 10 11 14 14 11 9 7 7 9 9 8 11 14 12 8 11 13 9 8 9 9 9 8 7 7 6 5 6 6 6 7 7 9 12 10 7 4 3 10 11 10 11 10 9 11 10 10 10 12 14 12 9
22 21 21 19 18 21 20 15 12 10 7 6 5 4 5 6 5 7 8 5 4 5 3 5 9 7 9 9 10 11 10 10 13 13 11 12 10 9 12 16 17 12 7 8 8 7 9 9 11 10 8 11 14 13 10 8 8 9 8 8 8 7 6 5 5 6 6 4 6 9 7 5 4 1 7 9 10 10 10 10 10 10 11 10 12 14 12 12
21 18 18 17 18 20 19 16 12 8 7 5 5 5 6 6 5 7 6 2 3 5 5 4 4 6 8 8 11 10 9 9 12 13 10 10 10 9 10 13 16 14 9 7 5 7 10 9 8 11 10 12 14 14 13 11 8 8 8 9 8 7 6 4 4 5 3 3 4 5 3 2 3 4 6 7 8 9 8 10 10 10 11 10 10 10 8 9
18 13 11 14 15 14 15 15 12 9 7 5 6 6 6 6 5 2 3 4 2 2 4 5 6 8 7 7 10 11 10 7 9 11 9 11 11 11 11 11 15 16 12 7 5 6 8 8 8 12 12 13 13 12 13 12 7 5 8 9 8 9 8 5 5 5 3 4 4 5 3 4 6 5 7 7 7 8 8 9 10 11 12 11 10 9 7 7
17 12 8 13 13 11 13 14 12 10 7 5 6 6 6 8 5 2 4 6 3 1 3 3 7 8 7 7 8 9 10 7 7 8 8 9 10 12 14 11 14 18 16 11 6 5 6 6 8 11 12 13 13 13 14 13 10 5 5 8 8 9 9 5 4 5 5 6 5 6 7 4 4 2 6 7 6 8 9 9 10 10 11 11 10 9 8 8
15 12 9 9 9 12 14 14 12 9 5 5 7 8 8 6 1 3 5 6 4 2 5 6 5 6 8 7 7 10 11 7 7 7 7 8 8 9 13 12 13 17 19 15 8 4 5 5 7 12 12 11 13 13 12 12 14 11 6 7 6 6 7 6 5 5 6 6 5 8 9 1 3 1 5 5 5 8 9 9 9 11 11 10 9 9 9 9
13 10 5 6 9 11 14 14 11 7 5 6 6 6 8 6 1 3 5 5 5 3 5 7 4 5 7 5 5 8 10 7 7 6 7 7 5 3 6 8 12 15 17 16 9 4 4 4 6 10 10 10 9 9 8 9 12 12 10 8 6 4 4 4 3 4 6 6 5 7 6 2 4 4 4 6 4 6 6 4 6 9 10 9 9 8 7 7
10 6 2 7 9 11 14 13 8 6 5 7 6 5 7 6 1 3 3 3 5 4 5 6 4 3 4 5 7 5 6 6 7 6 6 5 4 4 6 6 7 10 13 15 12 8 6 4 5 6 8 9 7 7 9 9 9 10 9 8 7 5 4 3 2 2 4 4 4 5 3 2 1 3 4 7 5 4 4 4 4 6 9 10 8 7 5 5
7 4 2 7 9 13 14 9 6 6 6 6 9 9 4 2 2 3 2 2 4 4 5 6 6 4 4 5 5 2 3 5 5 6 5 3 1 2 5 6 5 5 9 12 11 8 6 5 5 6 6 8 9 10 13 12 10 9 8 8 9 7 5 5 3 1 3 4 4 3 0 2 1 3 4 7 6 5 4 4 6 7 9 10 8 7 6 6
6 2 3 10 12 14 11 6 5 6 7 6 6 5 2 2 3 1 1 4 5 5 4 4 6 5 5 6 5 3 4 5 4 5 6 4 3 3 3 7 7 6 5 8 10 8 3 3 6 7 6 9 10 9 11 14 14 11 10 10 9 8 7 7 4 1 2 5 3 1 2 2 2 6 6 7 8 8 7 7 7 8 9 11 11 9 8 8
4 2 2 9 14 12 8 5 5 6 8 4 1 3 2 2 6 2 1 5 5 4 4 3 5 5 5 6 5 5 4 3 4 5 4 1 2 2 3 5 7 7 3 5 7 4 3 2 6 6 6 9 10 6 8 14 14 11 9 9 9 9 8 6 3 2 2 5 3 0 1 0 3 5 4 5 9 9 8 8 8 8 9 10 11 10 9 10
2 2 3 9 14 10 5 5 5 6 7 2 2 6 3 1 5 3 2 3 4 3 4 3 5 4 5 5 5 5 4 2 5 7 2 3 3 7 7 5 5 5 2 2 5 2 1 4 6 6 6 8 7 5 7 10 8 6 7 8 11 8 3 3 2 4 2 5 2 1 0 1 2 4 5 6 10 11 9 8 8 8 8 9 9 8 9 10
1 1 2 8 12 8 4 4 4 4 6 3 2 6 5 3 5 4 4 4 3 2 2 3 4 3 4 5 4 5 6 4 5 5 1 4 4 6 7 6 5 2 2 3 7 5 2 2 3 6 6 5 4 3 3 2 4 5 5 6 8 5 4 3 1 2 1 2 2 2 2 4 4 7 9 8 10 10 9 9 9 8 9 8 7 7 8 8
1 2 3 5 7 7 5 5 7 6 4 4 3 6 7 6 4 2 4 5 4 3 2 3 4 4 4 5 5 6 7 7 7 6 2 4 3 3 6 10 9 2 2 4 6 2 3 3 3 5 3 1 2 4 0 1 4 6 8 11 12 13 11 4 3 2 2 3 4 2 6 7 6 9 9 9 10 9 8 9 9 8 8 7 7 7 8 8
1 2 4 5 5 6 6 6 8 5 1 3 3 2 6 6 4 4 2 5 4 3 4 5 5 4 4 4 5 5 6 8 8 7 4 5 4 2 6 11 10 5 3 2 5 1 3 3 4 5 4 1 2 6 3 3 4 7 10 12 14 17 15 9 6 4 3 2 2 3 8 9 7 7 8 8 8 7 7 9 8 8 8 7 7 8 10 10
2 2 3 4 3 4 5 6 6 3 0 3 1 1 3 5 4 4 3 5 6 3 2 5 5 6 6 4 4 4 6 8 7 6 4 3 6 6 6 7 9 6 3 2 3 3 2 2 2 4 6 3 4 8 6 5 7 9 13 14 14 15 13 10 9 9 5 1 3 6 9 9 8 7 7 7 7 7 8 8 8 8 9 9 9 10 11 12
2 2 3 6 4 2 1 0 3 3 2 2 1 1 3 4 3 3 2 4 6 3 4 5 5 7 7 4 4 4 4 5 4 4 5 5 5 4 4 4 9 10 3 6 5 2 2 1 2 3 5 4 4 7 8 3 9 10 15 16 13 9 7 8 10 10 6 3 5 10 11 10 7 6 7 7 7 7 8 8 9 9 10 10 10 11 12 13
2 2 1 3 2 2 2 1 1 2 3 1 1 2 2 2 2 3 3 3 4 4 4 4 5 5 4 4 4 2 1 2 2 3 4 4 2 1 1 1 4 6 2 4 1 3 0 1 2 2 3 3 1 3 5 3 10 13 16 16 13 10 7 9 11 8 4 3 7 10 9 7 5 6 9 9 8 9 9 10 10 10 11 11 11 12 12 13
6 8 7 4 0 2 2 3 2 2 3 2 2 3 1 2 3 3 3 2 3 3 3 4 5 3 4 6 4 1 5 3 2 2 1 1 1 2 1 4 6 6 3 2 3 3 2 2 2 0 3 2 2 3 1 3 7 13 17 15 13 11 8 8 8 8 7 5 1 4 5 5 4 6 9 9 10 11 11 11 10 9 11 11 12 12 12 13
8 10 9 4 0 1 3 3 3 3 2 2 2 4 2 3 3 3 1 4 4 5 4 4 3 2 4 6 3 2 4 4 5 5 3 1 1 1 2 2 4 4 3 0 1 1 1 2 3 2 2 1 1 0 1 1 2 6 9 10 10 9 8 9 9 10 11 9 3 3 4 5 6 7 8 9 10 11 10 10 9 9 10 11 11 11 11 12
Wind_Direction
332 333 333 333 334 335 333 330 327 324 323 321 320 319 318 317 316 316 315 314 317 316 315 313 311 312 317 320 317 318 325 318 307 294 256 247 247 248 250 216 232 245 201 190 194 189 195 210 218 219 222 226 221 235 236 224 230 238 231 243 248 240 241 282 13 7 17 61 65 46 33 326 337 8 346 330 244 226 242 225 95 81 90 83 97 125 139 142
329 332 332 332 333 334 334 331 326 324 321 319 318 318 317 316 316 316 314 316 315 316 315 312 313 316 318 317 317 323 326 309 291 281 259 247 246 251 254 243 249 233 191 193 203 195 197 203 207 209 216 226 209 221 232 207 210 237 234 235 242 246 272 356 15 354 19 39 25 37 61 356 338 338 340 304 266 216 219 196 110 93 90 87 108 134 141 143
326 329 330 331 331 333 334 331 327 324 319 318 317 315 317 316 316 315 314 315 313 315 312 310 313 315 318 317 320 331 323 304 286 270 255 240 232 235 245 244 239 215 189 196 203 198 208 202 199 206 214 229 215 214 220 193 192 227 238 241 237 252 330 2 356 347 10 14 347 348 47 20 292 305 326 299 302 277 254 216 139 117 110 110 138 149 150 152
322 325 329 329 330 331 331 330 326 322 319 316 316 315 315 315 314 314 313 313 312 311 308 311 313 315 320 316 320 335 316 295 285 248 213 208 214 221 240 234 214 200 191 207 219 207 218 211 200 208 218 230 221 217 218 196 192 214 225 243 247 273 337 334 345 1 357 338 337 314 317 305 287 335 334 292 295 280 288 261 137 120 120 133 156 156 156 163
321 322 328 328 328 329 329 329 326 322 320 317 315 314 313 314 313 312 311 311 310 308 310 313 315 319 318 315 324 326 303 283 62 114 149 174 198 218 242 212 193 191 194 220 245 223 224 224 208 208 227 240 226 217 221 216 216 230 231 247 260 287 316 333 7 357 349 319 304 280 276 288 303 333 293 277 281 290 45 84 108 119 137 143 158 161 164 174
321 321 325 327 327 327 327 327 326 323 320 317 315 314 313 313 311 311 310 308 306 307 313 314 317 320 315 316 317 298 272 272 58 126 151 174 204 238 231 193 185 189 195 223 244 225 222 228 218 209 223 240 238 225 219 222 223 242 244 247 260 274 282 298 348 338 356 302 287 282 279 295 309 298 273 267 278 311 91 105 117 132 149 148 160 167 174 181
317 319 322 326 326 324 324 324 325 323 319 317 315 314 313 311 310 310 308 304 305 308 312 312 316 317 319 323 306 253 233 276 286 153 158 188 225 240 198 181 181 186 199 219 227 216 214 223 220 215 223 231 242 234 223 227 224 237 253 253 257 262 262 271 293 311 314 287 281 283 285 287 282 275 270 264 275 301 102 115 129 136 144 150 161 168 181 186
313 316 318 322 323 321 322 321 322 321 318 315 313 313 312 311 311 308 305 304 305 308 309 310 313 317 326 331 308 245 236 255 200 151 165 200 224 194 171 173 181 186 204 220 222 214 208 217 218 214 223 228 239 236 227 233 230 232 247 257 263 273 270 272 281 278 271 268 268 268 267 264 260 265 272 280 286 266 107 114 128 133 145 151 161 170 181 189
312 313 315 319 320 319 317 318 320 319 317 314 313 312 311 310 309 307 305 303 305 306 307 307 306 314 322 315 293 277 260 152 137 145 168 179 185 166 163 172 182 191 210 222 225 217 208 216 221 221 233 246 261 256 233 230 231 230 240 248 255 264 264 258 257 256 257 254 255 257 252 252 247 251 263 265 266 225 108 116 129 131 150 155 166 173 175 188
312 312 313 316 317 316 316 316 317 317 316 313 311 310 309 309 306 305 303 303 306 303 303 303 303 312 309 283 267 268 114 113 126 140 156 162 161 162 171 180 183 196 212 216 220 215 213 218 220 230 249 268 279 273 245 236 245 249 248 253 257 262 263 258 252 248 254 256 253 255 257 256 247 241 243 243 247 177 110 122 138 137 159 164 173 176 174 189
312 312 312 314 315 315 315 315 316 317 315 312 311 308 307 306 303 302 302 303 304 301 301 299 299 304 292 278 264 257 125 132 147 143 155 158 157 168 182 184 186 203 214 212 213 212 220 229 233 241 245 258 261 259 248 247 260 266 262 270 268 267 267 263 259 253 251 257 255 255 259 257 249 242 239 247 241 155 124 135 140 146 162 167 178 176 176 193
311 312 312 312 313 313 313 314 315 315 313 311 308 306 305 303 302 302 302 302 301 300 299 296 295 286 282 277 251 244 247 218 177 156 165 162 165 180 187 185 191 211 223 216 210 218 231 241 255 250 248 256 248 256 250 245 255 259 263 274 265 262 258 250 247 244 237 243 246 244 251 249 242 238 242 253 242 160 159 155 142 150 155 165 172 166 190 208
310 312 311 312 312 312 314 314 314 314 312 310 307 305 301 300 300 300 301 300 300 298 293 290 279 261 269 274 251 239 235 229 188 167 174 174 178 187 193 194 198 217 235 233 216 222 236 253 266 257 267 263 244 300 320 252 247 253 252 256 263 263 250 238 229 226 226 235 232 229 253 246 237 226 228 252 243 177 185 171 139 136 141 168 164 173 204 204
311 311 311 311 311 312 313 313 314 313 310 309 306 303 300 300 300 298 300 299 300 301 292 274 237 247 247 258 271 241 208 208 182 184 186 183 187 190 197 198 202 220 236 251 254 228 235 253 266 267 268 258 263 321 302 254 242 250 246 239 247 258 256 238 213 202 214 224 203 189 254 260 259 232 212 240 239 192 182 141 109 98 82 317 170 198 220 209
312 313 312 311 311 311 312 313 313 312 311 309 304 303 303 302 300 298 301 301 300 295 288 255 215 229 248 257 264 216 193 214 196 196 191 188 193 190 195 196 203 220 221 237 256 238 238 243 244 253 252 248 264 283 261 240 230 232 240 237 226 237 263 237 181 179 209 214 185 194 254 257 263 248 213 223 219 187 174 118 110 112 122 250 292 314 294 265
314 313 312 311 310 310 312 312 312 312 311 306 303 305 304 303 303 301 300 294 296 270 235 221 208 213 264 275 224 182 198 218 209 199 192 194 198 190 190 195 203 215 214 222 235 228 230 235 235 242 246 239 237 246 247 237 225 214 223 243 232 225 250 207 156 177 208 196 173 204 252 261 257 260 226 206 190 185 179 125 125 136 152 188 210 183 273 278
315 314 312 311 310 310 312 312 313 313 310 308 308 309 307 307 303 299 294 261 269 226 209 245 230 205 254 274 197 204 207 209 206 197 194 196 202 195 185 191 203 206 208 212 221 226 217 218 232 234 241 242 225 227 237 236 225 207 211 240 252 243 247 198 161 185 203 190 196 208 232 265 270 283 249 171 168 202 193 131 132 148 162 182 185 175 186 235
314 314 312 310 310 311 312 313 314 313 312 310 310 311 311 310 295 271 261 195 193 229 228 259 261 219 250 243 229 226 202 195 197 193 196 195 205 208 187 191 206 196 201 209 209 216 208 201 221 224 224 230 227 223 221 230 228 208 203 214 251 260 265 230 152 162 175 174 221 232 228 253 268 281 261 148 161 232 217 138 148 166 172 182 179 172 175 199
312 312 311 310 310 310 311 314 314 314 315 314 318 320 310 303 278 234 228 208 187 210 226 212 206 234 331 210 221 219 169 173 185 187 193 191 203 216 197 193 207 197 202 207 194 201 203 198 214 223 221 218 222 224 224 234 237 230 220 213 234 250 254 246 155 133 153 180 222 246 244 251 267 271 254 172 158 221 219 149 157 174 174 182 176 162 168 197
312 312 312 310 309 311 312 313 314 314 315 316 322 321 291 256 244 207 204 214 214 234 268 204 191 234 300 179 187 137 132 162 179 183 189 187 194 211 203 194 203 202 210 209 187 192 202 207 214 217 223 221 219 227 236 242 248 262 276 263 243 240 236 235 171 141 152 208 246 257 261 259 268 273 269 251 194 203 193 157 161 171 174 186 177 164 178 187
312 311 311 310 311 311 311 313 312 311 311 311 312 302 278 316 325 341 200 228 226 231 255 254 215 231 256 229 161 138 147 178 187 185 181 182 190 200 196 195 202 200 214 220 196 187 204 217 223 220 226 229 225 225 238 251 258 279 299 290 255 248 248 252 225 168 150 148 256 268 269 262 262 269 274 276 258 226 185 160 162 174 185 190 166 141 123 96
311 311 312 311 311 310 311 312 308 308 309 300 286 257 269 334 351 331 307 268 246 233 239 246 241 236 240 253 183 162 188 190 192 193 171 175 192 196 184 190 210 202 206 222 204 187 205 223 230 226 227 231 235 229 228 246 256 272 279 264 262 266 262 256 253 203 138 151 229 262 270 267 259 258 258 263 266 263 223 170 162 176 189 186 158 133 125 137
311 311 313 311 311 311 310 309 305 301 291 271 254 246 268 322 338 310 292 280 275 250 233 225 232 234 222 229 200 183 220 202 198 189 167 176 195 201 194 188 212 214 203 215 212 200 204 218 226 228 230 230 236 236 232 245 248 243 252 247 249 259 263 255 232 185 187 261 283 277 279 274 267 261 249 249 252 267 270 217 171 179 189 184 165 150 161 174
311 312 312 311 311 310 310 309 301 286 264 244 243 251 275 316 317 312 301 268 274 255 232 214 215 223 216 216 198 194 223 223 217 183 163 184 201 201 211 198 208 222 210 211 216 217 222 223 217 212 219 227 228 226 228 255 249 228 238 246 250 250 255 262 254 226 238 287 305 266 276 271 265 265 254 252 239 243 266 260 211 199 210 195 164 159 173 179
311 311 311 313 311 311 314 309 292 268 236 229 242 248 269 310 296 315 317 263 254 236 225 208 202 214 208 204 193 196 217 227 238 193 161 188 207 194 211 210 207 224 217 214 220 221 233 245 227 205 210 218 222 218 206 223 247 237 228 233 250 260 264 270 283 281 244 225 203 216 249 259 248 251 247 248 244 235 245 254 244 225 228 214 164 163 180 185
311 310 311 312 312 316 317 305 295 299 259 234 241 244 266 303 315 314 302 257 250 198 185 178 175 183 184 187 182 192 217 220 232 216 171 184 213 209 209 211 203 224 224 217 224 220 234 255 245 220 226 203 207 227 212 215 236 245 230 223 234 252 266 271 282 288 267 256 252 232 247 267 249 248 245 235 234 236 235 238 242 238 241 234 177 167 180 185
309 308 311 309 312 322 320 305 313 312 289 243 27 23 291 308 329 307 270 250 246 169 153 153 163 167 172 179 176 186 220 207 206 220 197 180 203 224 219 213 200 219 237 228 226 207 217 243 229 211 234 208 204 232 218 215 228 238 242 235 228 231 242 248 254 268 274 282 280 264 263 274 269 266 272 266 245 232 231 225 224 227 241 252 209 172 178 184
306 308 309 305 306 304 286 296 304 292 323 16 1 317 324 328 309 286 253 241 204 154 149 131 126 163 178 178 182 195 231 215 185 206 208 184 188 218 224 226 221 209 223 236 238 204 199 239 233 195 213 225 217 233 223 217 229 238 242 246 244 240 247 254 254 256 262 264 264 260 256 259 263 262 274 280 267 243 241 241 232 221 223 251 249 183 172 179
307 307 305 306 305 284 259 269 278 274 301 340 331 315 325 314 287 253 257 246 163 145 147 132 133 169 180 172 188 208 220 236 203 182 194 189 187 216 230 234 240 224 216 226 243 231 197 228 244 204 210 237 227 230 230 219 225 238 242 254 267 281 287 281 268 257 254 249 250 253 253 258 262 255 257 265 272 273 257 260 295 346 8 316 297 206 168 174
307 303 303 310 306 303 279 249 250 269 285 298 309 314 303 288 263 223 218 216 183 164 135 147 175 178 182 178 189 212 214 224 230 173 184 188 188 215 239 235 242 246 226 215 231 254 235 204 230 226 210 230 236 232 234 227 225 235 242 256 268 251 254 263 259 262 262 250 247 249 251 258 259 259 262 244 331 24 0 313 19 17 12 12 350 356 147 166
304 299 302 300 287 303 306 250 251 285 267 278 304 298 277 249 243 227 182 160 217 162 135 163 184 173 183 194 189 197 210 218 211 181 182 185 186 204 228 228 229 246 241 217 212 242 250 217 214 240 220 228 245 236 233 230 215 224 239 246 246 221 223 237 237 236 246 252 254 249 244 245 249 265 291 165 97 54 37 9 19 13 4 13 357 3 101 158
300 296 294 284 273 278 269 247 328 342 310 312 306 264 251 213 225 237 199 205 203 165 171 183 177 177 188 203 200 182 196 211 190 184 188 187 193 198 209 216 203 210 231 228 206 214 236 229 209 214 219 231 244 234 225 222 204 213 227 215 231 239 218 224 230 221 235 246 250 257 253 245 246 341 33 58 66 48 39 13 5 3 5 13 356 357 57 139
299 296 289 277 265 259 253 251 289 312 313 310 282 238 238 221 217 223 216 225 145 132 224 188 164 186 194 200 211 183 187 204 179 185 200 192 200 202 204 216 210 204 216 225 222 206 214 233 218 200 192 213 231 234 220 214 201 207 219 208 217 237 229 227 229 232 247 245 248 261 259 246 244 50 50 57 57 41 34 19 6 4 7 18 19 16 34 55
301 293 281 270 256 251 251 253 264 278 284 273 250 217 222 231 227 216 218 224 139 106 250 197 153 191 207 218 232 189 184 210 184 184 202 193 203 208 202 215 218 216 223 226 232 216 212 234 227 209 191 193 214 233 238 225 206 204 221 228 222 227 238 236 228 238 253 273 293 283 266 247 242 101 64 62 61 46 32 21 9 7 9 21 40 38 37 41
302 288 273 262 253 246 241 240 239 246 255 243 229 217 211 229 236 223 231 238 135 155 202 201 184 216 214 232 247 211 191 213 189 185 203 200 205 210 198 209 217 218 222 221 225 224 226 236 221 211 210 199 202 224 240 239 221 203 211 227 230 232 239 240 255 268 279 303 304 282 285 51 122 115 63 47 57 57 41 28 15 10 13 20 37 43 38 45
305 288 255 237 241 236 220 219 216 218 234 226 222 222 211 231 236 218 311 340 19 205 196 180 207 228 215 214 238 218 191 198 198 194 205 206 207 212 205 201 207 214 220 218 204 204 227 244 223 204 211 219 212 211 229 239 236 212 210 221 227 233 238 240 254 263 264 265 260 246 247 103 125 116 68 52 53 55 43 31 22 16 21 25 30 29 21 36
306 290 246 224 227 211 193 194 192 198 224 229 223 231 231 236 230 75 7 335 342 306 279 228 204 217 220 208 217 204 178 173 201 208 210 208 205 205 209 206 199 207 219 228 225 203 215 251 243 217 213 224 220 210 219 233 240 235 222 226 224 225 234 240 243 239 231 242 251 244 236 172 154 152 74 57 40 47 38 25 26 31 29 27 34 27 14 29
300 289 264 231 200 180 176 177 182 193 217 231 232 250 263 264 287 50 16 339 324 245 257 263 223 211 222 216 201 192 185 176 188 211 222 209 197 197 209 210 199 203 212 218 226 214 212 241 245 231 220 213 216 216 216 222 230 237 241 240 232 223 225 221 225 239 239 239 245 246 245 240 43 52 92 71 42 53 43 16 19 42 44 33 34 29 15 18
284 276 249 186 162 164 167 168 181 201 215 226 233 245 257 266 333 45 20 332 300 280 259 270 274 235 231 254 245 198 191 190 184 212 234 206 193 235 243 219 200 201 206 209 213 193 200 245 246 232 223 210 208 216 219 214 217 229 242 242 239 242 242 228 221 238 244 247 256 255 253 28 21 0 75 89 78 72 69 44 26 43 53 49 42 38 32 29
263 257 172 148 151 156 160 165 185 212 210 222 243 231 231 246 192 93 35 303 280 292 280 283 292 250 229 265 272 228 191 197 191 212 235 214 202 239 264 261 224 210 209 214 218 196 179 213 243 235 224 220 215 210 226 225 205 211 228 230 229 231 235 235 226 239 255 260 262 264 273 71 4 322 71 103 116 114 115 112 80 56 58 58 50 43 53 67
239 249 170 156 154 150 155 172 195 208 212 222 251 248 231 335 28 110 110 259 271 281 286 300 304 302 309 288 273 250 214 226 218 216 229 246 220 219 266 293 290 244 217 216 222 213 187 187 222 241 227 228 227 207 217 234 225 211 211 220 230 230 225 228 223 227 260 257 256 259 257 96 2 346 73 100 103 99 98 92 78 59 53 56 51 42 47 59
235 255 173 156 156 158 167 197 193 202 225 217 250 277 66 32 300 323 123 206 230 251 252 280 289 297 312 298 298 313 268 251 242 226 229 229 162 119 339 324 307 280 248 231 226 216 196 189 222 236 228 239 246 220 218 236 235 225 217 216 226 231 235 236 224 225 249 241 254 349 106 131 17 24 47 73 74 65 59 63 63 52 47 46 37 29 35 44
223 292 249 163 170 180 194 221 198 210 230 206 307 305 100 181 240 243 250 207 201 229 230 248 276 279 278 278 295 301 285 293 284 265 263 249 102 50 339 326 314 305 300 272 251 203 143 208 234 240 227 237 259 282 262 245 235 229 226 222 224 228 242 246 188 124 243 244 242 211 105 96 31 46 65 84 80 68 50 48 52 46 44 40 30 23 28 36
179 321 273 184 185 197 222 228 207 220 226 191 316 252 218 275 250 229 257 225 191 212 235 248 255 252 259 276 298 284 265 287 275 266 250 105 47 338 298 270 306 332 38 345 322 343 195 215 222 236 230 220 235 278 269 249 239 233 231 239 243 240 277 322 73 110 225 258 252 211 71 97 96 84 92 92 85 79 66 55 53 48 41 34 28 25 25 31
182 186 233 195 191 199 219 234 251 260 230 208 275 246 219 235 251 272 312 289 242 235 253 274 274 274 272 276 290 273 260 257 259 268 282 101 65 340 309 292 300 341 66 348 333 339 304 255 226 240 240 220 228 253 242 251 290 281 281 296 289 311 27 47 72 77 287 327 53 117 140 137 113 75 65 64 66 68 64 58 54 50 44 34 27 29 30 35
196 166 189 183 190 209 226 237 249 261 227 187 221 238 227 217 206 240 288 275 262 268 273 274 281 291 281 272 276 270 261 254 248 250 240 92 72 331 339 339 316 299 65 327 305 351 21 341 293 277 280 175 263 290 18 101 309 318 351 9 8 6 15 56 98 57 48 26 18 129 144 135 106 71 58 53 53 51 45 47 46 43 41 32 27 34 37 39
231 211 188 175 187 208 222 230 231 243 211 173 192 235 243 237 192 162 215 259 246 237 267 271 264 265 267 268 278 285 282 272 262 254 230 122 90 345 17 7 321 269 147 287 282 74 49 320 291 299 307 161 249 299 338 66 7 6 21 23 24 18 16 37 61 52 85 76 311 191 143 129 112 86 71 60 58 55 45 44 41 34 33 27 27 35 36 36
219 266 214 222 225 190 211 228 211 199 208 211 205 13 259 251 226 176 181 255 245 203 224 261 249 244 246 244 251 264 277 282 282 278 271 89 64 5 17 15 318 283 157 67 8 91 130 277 343 350 313 327 14 330 329 65 62 42 44 42 34 26 24 38 44 32 26 5 202 170 135 110 98 87 78 66 61 65 59 50 41 35 32 24 25 34 33 31
249 286 211 227 238 147 128 185 166 169 190 215 210 213 241 249 245 226 203 235 249 218 196 232 242 237 240 247 258 254 256 282 308 332 341 32 60 22 8 358 323 321 19 53 23 50 149 235 41 44 299 312 35 336 317 71 92 61 52 55 51 37 32 44 46 39 24 26 92 109 101 86 78 74 75 68 62 65 63 52 42 34 31 26 26 30 28 27
226 290 234 229 225 109 88 89 166 175 156 160 176 169 225 240 211 246 244 210 242 248 220 239 256 248 260 281 272 276 27 9 346 3 2 13 84 120 79 179 278 304 349 96 1 313 253 152 80 77 266 263 160 280 309 76 99 71 50 48 51 49 49 48 37 28 24 49 85 101 95 81 76 72 70 63 54 55 52 47 42 32 27 27 29 28 24 24
273 277 275 274 240 118 158 182 191 179 159 186 192 151 179 237 189 215 269 242 224 244 254 273 274 268 300 298 280 22 52 32 325 305 316 1 163 191 227 197 211 260 283 155 189 262 244 162 111 97 267 262 228 254 305 104 103 71 45 32 35 40 48 63 50 24 4 352 41 128 101 84 95 86 72 59 49 50 44 38 36 31 27 27 28 26 21 22
306 282 267 270 253 202 219 193 181 183 158 134 138 135 158 247 200 148 292 273 214 190 221 268 304 317 298 290 286 21 21 347 328 321 304 287 145 208 255 221 216 259 303 156 192 241 229 193 150 162 262 265 182 230 56 155 147 68 37 21 28 31 42 67 60 33 13 359 5 91 69 65 75 72 68 58 49 48 43 34 29 26 27 29 28 25 21 22
Height
797 795 794 793 792 791 791 791 791 790 790 789 788 787 785 784 783 782 781 779 779 777 777 777 775 775 773 773 771 770 768 766 765 764 761 755 753 753 753 753 754 755 756 756 757 757 757 757 755 754 755 753 753 751 746 743 742 747 756 764 762 754 743 730 730 730 726 730 731 729 730 733 733 726 718 718 722 722 722 721 724 729 731 735 738 743 747 749
797 795 794 793 792 791 790 790 791 790 789 789 787 787 785 784 782 781 780 779 778 777 777 776 775 774 773 773 771 770 769 766 764 760 753 751 752 752 752 752 753 754 754 756 755 754 754 754 752 752 754 753 750 748 747 742 743 751 755 761 757 744 731 722 727 727 727 735 733 730 731 732 733 728 722 726 727 722 726 727 729 738 740 742 744 747 750 750
797 795 793 793 792 790 790 790 790 790 789 789 787 786 785 784 782 781 780 779 778 777 776 776 775 774 773 772 771 771 769 766 761 752 745 747 751 751 751 751 752 753 753 754 753 752 752 750 750 751 753 754 749 746 747 743 744 749 752 759 749 733 728 723 725 726 727 732 733 733 731 733 731 724 724 729 729 724 726 725 731 745 747 750 751 749 751 751
797 795 793 792 791 790 789 789 789 789 789 788 787 786 785 783 782 780 779 778 777 776 775 775 774 773 773 771 771 771 769 765 754 743 741 745 749 750 750 750 750 752 752 753 753 752 750 748 747 749 752 754 747 743 746 743 744 746 748 753 739 726 731 727 724 727 729 730 734 736 733 735 728 723 727 730 734 731 725 718 723 742 747 749 751 748 751 750
796 794 792 791 791 790 789 789 788 788 788 787 786 785 784 783 781 780 778 777 776 775 774 774 773 773 772 771 771 770 770 765 749 740 743 746 748 749 749 749 750 751 752 753 752 751 749 747 746 749 753 753 748 745 747 740 739 744 743 742 733 728 734 729 725 729 731 732 735 736 736 734 726 727 731 731 736 732 726 723 725 737 742 744 748 748 750 749
796 794 792 791 790 789 788 788 787 787 787 786 786 784 783 782 780 779 778 777 776 775 774 773 773 772 771 770 770 770 771 760 744 742 746 745 748 748 748 748 749 751 752 754 752 750 749 747 748 752 754 753 749 746 745 737 736 746 743 735 732 730 733 729 727 730 732 735 738 736 733 729 731 735 729 728 731 724 723 728 730 734 736 740 745 747 750 749
796 794 792 790 789 789 787 787 786 786 786 785 785 784 783 781 780 779 777 776 775 774 774 773 772 771 770 769 768 769 768 754 741 744 745 745 748 746 748 748 749 752 752 753 750 748 749 749 751 751 753 753 748 743 740 735 735 744 744 736 731 728 730 728 727 730 732 737 736 732 732 733 739 739 729 727 725 719 722 725 728 733 734 739 743 746 749 749
795 794 792 790 788 788 787 786 785 785 785 784 784 783 782 780 779 777 776 775 774 774 773 772 772 771 770 769 766 764 760 749 742 744 744 745 747 746 748 748 750 752 751 751 748 746 747 749 749 748 752 749 743 739 736 737 738 742 743 736 731 728 728 727 728 731 733 735 733 732 736 737 736 734 730 729 723 719 723 726 729 733 735 740 744 747 749 749
794 793 791 790 788 787 787 785 785 784 784 783 783 782 781 779 778 776 775 774 773 773 772 771 771 770 771 770 768 763 751 741 741 743 743 744 746 747 748 748 750 751 751 750 745 744 745 748 746 743 747 743 738 737 735 741 743 737 737 734 732 731 728 727 729 731 732 732 731 735 739 735 730 731 734 729 722 720 723 729 733 735 738 740 744 747 748 750
793 792 791 789 787 787 786 785 784 783 783 782 781 780 779 778 777 775 774 773 772 772 771 771 770 769 771 769 768 762 745 739 742 742 743 744 745 747 748 749 750 750 749 747 744 743 743 744 741 737 741 741 739 738 736 740 738 731 733 732 731 732 727 727 729 729 731 730 730 736 739 733 726 731 738 727 716 719 726 732 734 736 740 741 744 746 747 749
792 791 790 788 787 786 785 784 783 782 782 781 780 779 778 777 775 774 772 771 771 770 770 769 769 769 770 768 766 757 741 740 743 742 745 744 745 747 747 748 749 749 747 744 742 741 740 739 735 737 742 742 740 740 736 734 731 729 732 734 733 732 730 729 730 729 731 732 730 732 736 733 728 732 735 723 712 715 726 734 736 737 739 741 743 745 746 748
791 790 789 787 786 785 785 784 782 781 780 779 779 777 776 775 774 772 771 770 769 769 769 768 769 769 769 767 760 749 740 741 742 742 745 744 745 747 746 747 747 747 744 741 741 740 739 737 736 741 742 740 742 743 737 729 729 731 732 741 740 734 735 731 729 729 731 734 726 728 740 739 734 734 727 716 710 712 722 730 734 738 739 741 744 746 748 748
789 789 788 787 785 784 784 782 781 780 779 778 777 775 775 773 772 771 769 769 768 768 767 767 768 768 770 763 747 739 740 740 741 742 744 744 746 746 746 746 746 746 743 740 740 740 740 738 739 742 738 740 743 739 733 727 731 735 734 742 744 742 738 727 724 727 729 731 721 729 752 748 733 728 721 713 709 713 723 727 733 741 743 744 745 748 750 748
788 787 787 786 784 783 782 781 780 778 777 776 775 774 773 771 770 769 768 767 767 767 766 767 768 768 770 757 739 737 740 739 740 741 742 744 744 744 744 744 745 744 743 741 741 740 741 740 741 742 739 740 737 733 735 734 735 738 740 742 744 750 741 719 717 725 730 727 717 733 757 749 730 721 716 711 709 714 724 730 735 744 749 750 750 751 752 749
787 786 786 785 783 782 781 780 779 777 776 775 773 772 770 770 769 767 767 766 765 766 765 766 767 766 765 752 737 737 739 739 740 739 741 742 741 742 742 743 744 743 743 743 742 742 742 742 744 747 743 737 736 741 744 742 738 739 748 750 744 746 737 715 711 721 729 724 717 735 754 745 728 716 709 706 707 712 724 733 738 743 747 753 756 755 759 759
786 785 784 784 782 781 780 779 778 776 775 773 771 770 768 768 766 766 766 764 765 765 765 766 764 764 761 748 737 736 738 738 737 738 739 740 740 740 741 742 743 743 744 743 743 742 742 743 744 745 743 739 742 747 747 746 744 738 746 751 741 738 734 721 715 716 720 723 724 736 746 740 723 709 700 699 705 712 722 732 737 742 746 751 756 758 766 772
785 784 783 782 781 780 779 777 776 775 773 771 769 767 766 766 765 765 764 764 764 763 765 763 759 762 755 741 737 736 734 734 735 737 738 738 739 738 740 742 742 742 743 742 743 743 742 744 745 744 743 743 741 744 754 759 752 741 741 744 737 731 729 725 724 717 714 723 730 733 738 735 721 707 698 697 706 713 720 729 734 739 745 748 752 758 767 774
784 783 782 781 780 778 777 776 775 773 771 769 767 766 765 764 763 763 763 764 764 765 766 761 759 764 751 735 735 731 728 731 733 734 736 737 738 737 738 740 740 741 743 745 744 744 744 744 745 747 746 745 741 743 757 758 745 739 738 741 739 730 725 725 726 720 717 727 733 734 736 732 720 712 705 702 709 715 718 726 731 734 739 742 746 752 759 763
784 782 781 780 778 777 776 775 773 772 770 767 766 765 763 763 762 762 763 762 762 762 759 754 754 753 739 729 727 722 723 729 730 733 735 736 737 736 735 738 739 741 747 749 747 744 745 746 749 753 751 746 742 739 745 741 730 728 725 728 734 733 727 721 721 719 718 729 735 734 735 730 722 717 710 706 710 716 720 725 730 731 734 738 741 747 751 754
783 781 780 779 777 776 774 773 772 771 769 767 766 765 762 759 757 757 759 759 755 747 740 740 742 737 728 724 722 721 725 728 729 731 732 734 737 736 735 737 739 743 746 747 747 741 742 751 754 752 748 741 737 734 732 728 723 722 719 721 725 729 727 717 718 718 716 730 736 731 733 730 725 720 712 708 709 714 719 727 731 731 734 736 739 744 747 750
782 781 779 777 776 774 773 772 771 770 769 767 768 766 758 752 751 753 754 751 744 739 736 734 734 731 725 720 718 722 727 729 729 728 731 733 734 738 738 737 742 747 745 740 741 738 741 754 751 742 738 733 731 730 729 728 726 727 729 729 726 725 723 714 715 714 711 730 739 732 734 732 726 722 715 711 712 712 713 724 731 730 731 733 736 742 745 748
781 780 778 777 775 773 772 771 769 769 768 768 768 764 755 750 752 753 751 747 738 733 733 731 729 727 721 719 718 720 726 730 730 727 727 731 734 738 737 737 743 744 740 738 739 743 749 752 743 733 730 728 728 726 728 730 729 733 736 737 735 728 724 719 714 710 712 728 738 735 736 734 725 721 718 714 713 710 706 713 725 728 729 730 734 740 743 746
780 778 777 776 773 772 771 769 768 767 767 766 764 760 755 752 752 751 751 750 738 727 726 727 727 725 722 721 719 721 726 728 730 726 724 730 733 733 734 737 741 738 737 738 739 746 753 745 733 727 725 727 730 726 728 731 731 737 740 742 741 732 731 731 721 715 716 722 730 736 738 735 726 720 718 714 711 710 705 703 712 720 723 725 729 735 738 741
779 777 777 775 773 772 769 767 766 764 764 762 761 757 754 754 753 753 751 748 739 725 718 717 719 721 720 719 718 724 728 724 723 722 722 728 730 730 732 733 737 737 735 733 734 739 741 730 720 722 724 727 731 729 731 739 741 740 740 741 739 732 731 730 722 718 719 723 727 738 748 742 732 728 723 714 710 711 709 704 705 711 713 716 722 729 732 735
778 777 776 774 773 770 768 767 763 761 760 759 758 754 754 755 753 753 752 749 739 722 713 712 713 715 713 715 718 720 725 723 719 716 717 723 726 728 730 727 732 737 732 729 731 733 730 717 712 719 723 723 729 731 734 743 747 744 737 735 735 732 729 726 723 724 731 736 730 736 761 756 732 729 727 717 714 713 711 709 707 708 708 709 719 727 730 732
777 777 775 774 772 769 768 765 760 760 758 755 754 753 754 754 753 754 753 750 737 718 713 714 713 713 710 714 716 718 728 727 716 712 714 719 720 722 728 727 727 732 727 724 726 727 724 715 712 719 721 723 730 734 733 737 747 748 734 726 729 731 732 731 730 734 739 741 728 727 753 756 734 725 721 714 715 713 710 710 708 708 707 707 714 723 726 728
777 776 774 773 771 769 768 762 760 760 755 753 753 753 755 753 753 754 753 756 740 714 713 716 713 713 712 713 714 723 733 723 713 713 711 716 718 716 726 727 725 728 721 720 727 723 719 719 718 721 724 728 735 737 731 730 744 746 727 721 726 727 731 730 730 738 738 736 733 725 734 748 743 729 716 710 712 711 709 709 707 707 708 706 709 716 719 721
776 774 773 772 770 770 769 765 763 758 755 754 753 755 755 752 755 753 756 761 735 705 707 713 711 711 710 711 713 720 721 711 716 718 707 712 718 717 726 725 722 725 717 722 733 721 714 720 719 719 728 733 734 732 725 726 737 735 722 720 720 719 723 722 726 736 735 740 749 736 729 748 750 730 717 714 713 713 710 708 706 705 707 706 705 710 714 716
775 773 772 770 768 768 767 766 764 758 756 756 755 756 753 754 755 751 758 755 720 698 705 710 711 712 709 712 716 716 712 708 713 712 705 712 716 717 725 722 718 720 715 720 728 717 710 714 712 717 729 732 727 724 719 723 730 724 720 721 717 719 725 727 733 737 737 748 756 741 731 747 751 731 720 721 720 719 713 709 710 708 707 709 706 706 710 713
773 772 771 769 768 766 765 765 761 757 757 756 757 755 753 756 754 756 764 746 712 701 706 709 712 711 711 716 719 716 713 711 708 706 708 713 715 717 718 715 715 718 715 716 721 715 707 707 709 713 721 723 721 719 716 718 720 719 722 724 725 728 732 737 737 736 748 757 749 736 730 741 752 737 721 724 726 724 720 716 718 716 713 714 712 709 711 714
772 770 769 769 767 766 765 761 757 757 757 757 757 755 755 755 752 758 754 726 707 705 705 710 710 706 711 717 717 717 715 712 708 710 714 714 718 722 722 720 721 724 724 721 721 719 713 713 714 710 710 715 720 719 716 714 716 722 727 730 739 742 742 747 743 744 764 766 743 729 723 733 751 741 722 721 721 721 725 724 724 723 721 720 719 717 716 718
770 768 768 767 766 765 763 757 755 757 757 757 757 755 756 756 756 755 735 712 714 713 702 706 707 704 709 711 710 712 714 713 710 711 715 718 722 723 725 727 726 735 741 731 725 723 719 717 714 712 712 716 724 727 723 719 720 727 730 737 754 758 756 761 759 755 763 756 736 725 724 734 743 737 729 725 721 722 725 726 727 727 727 727 725 723 721 722
767 766 765 764 763 762 759 757 757 758 758 758 757 753 755 759 753 741 725 714 715 708 695 695 700 702 705 708 707 704 709 712 709 712 714 716 722 722 722 721 718 730 739 732 727 727 728 722 709 713 719 717 723 730 732 727 724 730 733 740 757 764 768 773 767 762 759 748 731 721 729 740 739 737 736 731 729 729 727 727 728 728 730 733 733 732 731 731
764 763 761 760 760 758 756 758 758 758 758 757 756 754 758 761 744 725 719 712 704 701 697 693 697 703 704 706 702 695 706 711 704 711 715 714 723 724 721 719 715 719 725 728 727 726 737 737 716 713 718 717 720 723 722 720 720 726 725 730 744 750 759 767 764 763 761 751 740 733 737 742 743 744 737 730 731 731 731 733 732 732 733 735 739 742 742 742
760 759 757 756 756 754 754 757 757 758 759 756 755 754 757 756 736 720 716 705 698 702 701 696 703 711 709 707 700 691 701 708 702 708 714 715 721 721 718 719 715 714 721 731 729 722 735 736 713 707 710 710 717 716 710 714 721 721 717 727 738 732 735 749 752 750 753 758 755 746 741 737 741 744 735 732 735 733 736 739 737 739 739 738 744 747 747 747
758 755 755 754 753 751 752 755 756 758 757 754 754 752 746 737 723 717 713 705 703 703 702 706 710 714 713 708 702 694 695 702 703 707 711 711 713 713 711 711 710 711 716 724 725 725 738 733 708 704 709 705 710 713 708 715 722 718 720 729 726 715 720 740 749 743 749 767 760 743 743 745 747 749 741 740 743 740 742 744 744 745 743 745 751 751 751 751
757 754 752 750 749 749 751 753 754 756 755 752 753 746 732 718 708 710 712 709 708 705 709 717 712 710 713 708 703 698 696 703 708 709 711 710 708 706 705 703 703 705 707 711 716 717 730 734 713 706 715 707 701 707 707 707 711 719 727 723 713 712 717 730 749 753 757 769 758 739 744 754 758 761 755 750 750 749 749 750 750 750 750 753 756 756 755 753
758 755 750 746 746 747 749 752 753 753 752 751 751 741 727 716 707 707 712 712 711 710 716 720 709 703 706 706 702 697 698 708 711 712 713 709 706 700 698 700 698 698 699 703 713 712 719 736 723 704 710 708 698 705 714 709 704 712 718 711 713 730 734 732 746 759 763 768 760 743 740 753 764 765 764 763 761 760 760 759 757 756 757 759 759 759 758 757
759 754 748 743 744 746 748 751 751 751 751 750 747 738 725 717 710 709 714 715 714 716 719 716 708 703 702 703 701 695 697 706 711 716 715 709 709 703 696 696 695 694 694 697 709 713 716 737 734 707 702 706 703 710 721 719 709 708 711 709 711 724 731 732 737 746 754 762 763 752 750 766 774 766 766 771 767 767 769 767 765 763 763 763 763 763 763 763
756 751 747 743 744 747 748 750 750 749 749 744 738 728 717 712 711 711 716 717 717 718 719 714 709 709 706 704 702 697 699 705 708 716 715 708 711 708 696 694 694 693 694 694 702 707 714 734 740 719 705 711 715 715 718 718 714 716 720 721 719 717 719 728 733 734 742 757 763 761 767 778 773 762 767 772 768 768 769 767 769 768 766 766 767 767 767 768
752 751 748 744 745 746 747 750 749 746 743 739 731 720 714 714 714 714 717 719 719 717 717 717 714 714 713 710 706 702 704 708 709 713 716 715 719 716 704 698 698 696 698 700 702 705 712 726 737 730 720 720 715 705 704 706 705 711 718 720 720 719 721 736 746 740 742 753 755 758 775 783 769 759 765 770 770 769 767 768 771 771 769 768 768 769 769 769
750 750 745 742 746 746 747 747 743 740 737 732 725 718 717 721 719 717 718 719 720 718 716 718 719 718 718 716 711 708 709 712 711 712 715 717 719 719 712 704 702 700 703 707 703 699 704 717 731 732 725 718 707 696 698 701 697 701 707 709 712 715 719 736 753 753 750 749 743 749 772 780 770 767 772 774 775 774 771 772 773 772 772 771 771 771 770 770
748 748 744 743 746 745 746 746 740 737 732 723 720 718 718 722 722 720 720 719 720 720 719 720 720 719 719 716 713 714 715 717 717 715 715 716 716 716 712 709 709 707 710 715 710 702 707 721 732 733 724 714 705 700 699 696 696 703 705 704 707 711 713 720 731 742 748 745 744 756 775 780 774 775 779 778 777 777 777 776 775 775 775 775 776 775 773 773
749 751 747 746 746 745 749 748 741 736 729 722 725 723 719 721 722 721 722 720 718 720 722 722 720 719 719 715 715 718 719 724 725 716 716 723 723 718 714 711 713 716 721 726 722 715 719 726 733 740 740 733 726 725 720 708 705 709 709 707 704 705 717 723 723 734 746 744 746 760 780 788 782 777 778 777 776 779 781 780 779 779 779 780 780 779 778 778
751 754 750 746 745 747 751 748 742 737 729 728 732 729 725 726 723 721 724 722 718 719 724 724 719 718 718 716 720 720 717 724 726 717 718 727 726 722 720 716 716 720 723 724 722 723 728 730 733 743 751 753 752 749 743 735 729 721 716 717 713 714 730 738 735 745 754 749 749 763 780 789 783 776 779 780 780 784 785 783 783 782 783 785 783 782 782 781
750 752 750 748 746 745 746 742 739 735 729 731 736 732 729 729 725 723 726 725 721 720 724 725 721 722 723 722 726 726 719 719 720 718 721 730 732 729 725 724 723 721 723 725 722 725 735 737 735 739 748 758 761 751 740 742 746 741 733 733 734 734 739 740 745 759 767 766 767 765 768 778 781 780 784 786 786 790 790 788 787 787 787 788 786 784 784 783
751 747 744 746 745 743 741 736 731 730 727 730 735 732 729 728 725 727 729 727 723 723 726 726 723 726 729 728 730 732 726 720 718 717 719 727 735 731 727 734 736 726 724 727 724 729 745 748 740 738 744 750 753 745 736 739 747 751 749 748 751 751 749 750 758 766 771 779 784 771 761 772 783 785 788 790 792 795 795 794 794 792 791 790 788 787 786 786
750 745 738 738 739 738 737 731 727 728 729 729 731 733 733 730 727 730 732 729 723 724 730 732 728 727 726 726 731 735 732 729 726 721 720 728 737 737 735 741 741 730 725 729 728 734 751 755 746 744 747 746 745 744 742 744 750 754 756 758 763 765 765 766 767 767 770 776 778 771 769 778 787 790 793 793 794 797 797 797 797 796 795 794 792 790 790 790
748 746 738 734 732 731 730 727 726 729 732 731 732 734 735 734 732 731 730 731 729 725 730 735 732 725 721 720 726 732 733 736 738 733 729 735 742 747 748 747 743 734 733 739 737 733 745 754 750 749 752 748 747 752 754 755 757 759 760 762 768 772 770 769 768 769 773 772 769 772 781 790 795 796 796 795 796 798 798 799 801 800 800 799 797 796 795 794
747 745 738 731 728 728 729 729 728 730 733 734 735 735 734 736 737 734 728 732 737 732 728 732 731 723 722 722 725 730 732 735 741 739 737 741 746 749 753 755 753 744 740 747 746 737 743 753 751 751 754 750 748 753 761 765 763 767 772 770 770 774 773 773 775 775 776 775 771 774 785 795 799 797 797 799 800 801 802 803 805 805 804 802 801 801 800 799
744 742 737 733 731 730 731 730 729 732 735 735 735 735 736 736 735 736 733 729 733 736 733 732 730 727 728 728 728 731 732 732 736 734 732 737 741 742 744 749 752 746 739 743 746 740 742 750 753 756 758 756 752 751 761 769 766 772 787 786 780 781 780 781 785 785 784 780 774 774 784 796 800 798 801 805 807 808 810 809 808 809 808 807 806 806 806 805
745 741 735 733 733 732 730 727 727 732 735 733 732 734 738 735 729 734 741 734 727 731 732 731 732 734 737 738 735 735 734 733 732 730 727 729 731 732 734 734 737 739 737 739 741 738 739 745 754 761 763 760 755 754 764 772 771 780 798 799 791 788 786 786 790 791 789 785 783 787 795 801 802 803 808 813 814 815 816 814 813 812 811 811 812 811 811 809